FENGYUN 1C DEB

Satellite information

Favourite Embed

Satellite Type and Status

DEBRISIN ORBIT

Key statistics

Satellite FENGYUN 1C DEB at a glance.

Uptime

9495

Days in orbit

Revolutions

≈ 14.1

Per day

Orbit

SSO

Sun Synchronous Orbit

Inclination

98.8

Latest

Satellite identification and parameters

Extended collection of information and parameters for FENGYUN 1C DEB.

Object identification

Identified? True

Debris? True

Object name: FENGYUN 1C DEB

International designator: 1999-025BEZ

Object number (NORAD): 31055

Object ID (CCSDS): 31055

Country: PEOPLES REPUBLIC OF CHINA (PRC)

Current information (Y/N): Y

RCS size: SMALL

Orbital parameters

Period: 102.121 minutes

Inclination: 98.7796 deg

SMA: 7237.191 km

Apoapsis: 877.551 km

Periapsis: 840.562 km

RAAN: 164.1899 deg

Eccentricy: 0.0025555

Argument of periapsis: 169.5333 deg

Mean anomaly: 318.9646 deg

Mean motion: 14.10092726 rev/day

Mean motion (dot): 0.00000634 rev/day2

B* drag term: 0.0003821 1/REarth

Two-line elements (TLE)

Creation date: May 8, 2025, 3:01 a.m.

Reference frame: TEME

Reference center: EARTH

Epoch: May 7, 2025, 2:20 p.m. UTC

TLE line 0: 0 FENGYUN 1C DEB

TLE line 1: 1 31055U 99025BEZ 25127.59747582 .00000634 00000-0 38210-3 0 9993

TLE line 2: 2 31055 98.7796 164.1899 0025555 169.5333 318.9646 14.10092726930339

Live tracking on map

Real-time ground track for satellite FENGYUN 1C DEB.

In-orbit conjunctions

A list of the most updated potential collisions computed for object FENGYUN 1C DEB.

Target Orbit TCA Probability of collision Miss distance Type
THORAD AGENA D DEB LEO 2024-10-09 20:56:48 0.0002318507 28.0 (m) DEBRIS
FENGYUN 1C DEB SSO 2024-09-09 23:57:41 0.0001273533 242.0 (m) DEBRIS

Associated space launch

Chinese polar orbiting meteorological satellite

FENGYUN 1C DEB was lifted into orbit during the mission ‘Long March 4B | Feng Yun 1C’, on board a Long March 4B space rocket.

The launch took place on May 10, 1999, 1:33 a.m. from Launch Complex 7.

For more information about the launch, click the button.

Launch to space Long March 4B | Feng Yun 1C
Long March 4B | Feng Yun 1C

Agency: N/A

Status: Launch Successful

Launch date: May 10, 1999, 1:33 a.m. UTC

Rocket: Long March 4B

Launch pad: Launch Complex 7

Location: Taiyuan Satellite Launch Center, People's Republic of China

...

Latest news about this satellite

There are no fresh news available about this satellite. Check back as we update our databases every day.


Newsletter sign-up

Weekly statistics, charts and insights to help you stay on top of the space industry.